#�ϑ�����,���ϕ���,���ϕ���,�ő啗��,�ő啗����������,�ő�u�ԕ���,�ő�u�ԕ�����������
#(�N����),(m/s)   ,(16����),(m/s)   ,(16����)        ,(m/s)       ,(16����)            
2017/9/2 0:01,2.3,12,2.4,12,4.9,13
2017/9/2 0:02,2.3,12,2.3,12,3.9,15
2017/9/2 0:03,2.4,13,2.4,12,4.7,14
2017/9/2 0:04,2.5,13,2.5,13,5.5,3
2017/9/2 0:05,2.9,14,2.9,14,9.8,1
2017/9/2 0:06,3.3,15,3.3,14,9.8,16
2017/9/2 0:07,3.2,15,3.3,14,5.8,14
2017/9/2 0:08,3.3,16,3.4,15,8.6,1
2017/9/2 0:09,3.4,16,3.4,15,6.2,2
2017/9/2 0:10,3.5,16,3.5,16,8.9,1
2017/9/2 0:11,3.6,16,3.6,16,10.5,2
2017/9/2 0:12,3.6,16,3.7,16,5.6,1
2017/9/2 0:13,3.8,1,3.8,1,9.2,1
2017/9/2 0:14,3.9,16,3.9,16,7.4,16
2017/9/2 0:15,3.6,16,3.9,16,4.9,13
2017/9/2 0:16,3.3,16,3.5,16,8.5,1
2017/9/2 0:17,3.5,16,3.6,16,9,1
2017/9/2 0:18,3.6,16,3.6,16,8.6,1
2017/9/2 0:19,3.5,16,3.7,16,5.7,3
2017/9/2 0:20,3.4,16,3.6,16,7.5,3
2017/9/2 0:21,3.6,1,3.6,16,9.8,1
2017/9/2 0:22,3.7,1,3.7,16,7.5,15
2017/9/2 0:23,3.4,1,3.7,16,5.5,15
2017/9/2 0:24,3.3,1,3.4,16,6.1,15
2017/9/2 0:25,3.2,1,3.3,16,3.5,3
2017/9/2 0:26,3.3,1,3.3,16,9,16
2017/9/2 0:27,3.5,1,3.5,16,9.4,2
2017/9/2 0:28,3.4,1,3.5,16,8.7,1
2017/9/2 0:29,3.7,1,3.7,1,10.6,15
2017/9/2 0:30,3.8,16,3.9,1,9.1,1
2017/9/2 0:31,3.6,16,3.8,1,7.5,1
2017/9/2 0:32,3.6,16,3.6,1,6.8,14
2017/9/2 0:33,3.7,16,3.7,1,6.7,4
2017/9/2 0:34,4,16,4,16,8.1,12
2017/9/2 0:35,4.3,16,4.3,16,8.7,1
2017/9/2 0:36,4.2,16,4.4,16,6.1,15
2017/9/2 0:37,4,16,4.1,16,9.5,14
2017/9/2 0:38,4.2,16,4.2,16,10.3,1
2017/9/2 0:39,4.1,16,4.2,16,10,15
2017/9/2 0:40,4.2,16,4.2,16,11.1,16
2017/9/2 0:41,4.5,16,4.5,16,13.5,15
2017/9/2 0:42,4.9,16,4.9,16,15.6,1
2017/9/2 0:43,5.2,16,5.2,16,10.6,16
2017/9/2 0:44,5.2,16,5.3,16,8.2,16
2017/9/2 0:45,5.3,16,5.3,16,10.9,1
2017/9/2 0:46,5.6,16,5.6,16,11.4,14
2017/9/2 0:47,5.5,16,5.7,16,9.8,14
2017/9/2 0:48,5.3,16,5.5,16,4.2,15
2017/9/2 0:49,5.1,15,5.2,16,5.6,1
2017/9/2 0:50,4.8,15,5.1,16,7,15
2017/9/2 0:51,4.5,15,4.8,16,7,1
2017/9/2 0:52,4.1,15,4.4,16,8.9,15
2017/9/2 0:53,4,15,4.1,16,8.6,15
2017/9/2 0:54,4,16,4,16,7.5,1
2017/9/2 0:55,3.8,16,4,16,8.1,15
2017/9/2 0:56,3.7,16,3.8,16,9.5,1
2017/9/2 0:57,3.8,16,3.8,16,7.9,16
2017/9/2 0:58,3.8,1,3.9,15,6.1,15
2017/9/2 0:59,3.8,1,3.8,15,7,15
2017/9/2 1:00,3.8,1,3.8,15,5.2,3
2017/9/2 1:01,3.9,1,3.9,16,6.8,3
2017/9/2 1:02,3.8,1,3.9,15,5.1,16
2017/9/2 1:03,3.6,1,3.9,16,4.7,3
2017/9/2 1:04,3.4,1,3.6,16,3.9,9
2017/9/2 1:05,3,1,3.3,16,4.1,7
2017/9/2 1:06,2.9,1,3,16,6,6
2017/9/2 1:07,2.5,2,2.8,16,3.3,3
2017/9/2 1:08,2.3,2,2.4,1,1.1,12
2017/9/2 1:09,2.2,2,2.3,1,4.1,12
2017/9/2 1:10,2.2,2,2.2,1,4.3,16
2017/9/2 1:11,2.2,2,2.2,1,7.7,15
2017/9/2 1:12,2.3,2,2.3,1,9.1,3
2017/9/2 1:13,2.7,2,2.7,1,10.1,3
2017/9/2 1:14,2.6,2,2.7,1,5.6,2
2017/9/2 1:15,2.8,2,2.9,1,8.7,2
2017/9/2 1:16,2.8,2,2.9,2,6.9,2
2017/9/2 1:17,3.1,1,3.1,2,7.5,1
2017/9/2 1:18,3.5,2,3.5,2,9,2
2017/9/2 1:19,3.7,2,3.7,2,6.9,16
2017/9/2 1:20,3.7,2,3.7,2,4.3,15
2017/9/2 1:21,3.4,1,3.6,2,5,16
2017/9/2 1:22,3.3,1,3.4,2,5.6,16
2017/9/2 1:23,3.1,1,3.2,2,7.2,16
2017/9/2 1:24,3.3,1,3.3,2,7.8,2
2017/9/2 1:25,3.5,1,3.5,2,10.9,15
2017/9/2 1:26,3.5,1,3.6,2,8.2,16
2017/9/2 1:27,3.5,1,3.5,2,7.2,15
2017/9/2 1:28,3.3,16,3.4,2,10.5,1
2017/9/2 1:29,3.5,16,3.5,2,10.5,16
2017/9/2 1:30,3.9,16,3.9,16,9.8,1
2017/9/2 1:31,4.1,16,4.1,16,7.4,16
2017/9/2 1:32,4.2,16,4.3,16,8.1,16
2017/9/2 1:33,4.3,16,4.3,16,7.2,16
2017/9/2 1:34,4.2,16,4.4,16,7,1
2017/9/2 1:35,3.8,16,4.1,16,5.4,10
2017/9/2 1:36,3.9,16,3.9,16,7.9,16
2017/9/2 1:37,3.8,16,3.8,16,5.4,2
2017/9/2 1:38,3.7,16,3.8,16,7.4,2
2017/9/2 1:39,3.5,16,3.7,16,7.5,1
2017/9/2 1:40,3.4,16,3.5,16,7.7,16
2017/9/2 1:41,3.3,1,3.4,16,7.6,1
2017/9/2 1:42,3.1,1,3.3,16,4.9,16
2017/9/2 1:43,3.2,16,3.2,16,8.1,2
2017/9/2 1:44,3.1,1,3.1,16,5.8,1
2017/9/2 1:45,3.2,1,3.2,16,6,16
2017/9/2 1:46,3.3,1,3.3,16,10.7,1
2017/9/2 1:47,3.6,1,3.6,16,10.9,15
2017/9/2 1:48,3.8,16,3.8,1,8.4,16
2017/9/2 1:49,3.6,16,3.8,1,5.4,15
2017/9/2 1:50,3.5,16,3.6,1,7.1,16
2017/9/2 1:51,3.6,16,3.6,1,7.8,16
2017/9/2 1:52,3.8,16,3.8,1,8.5,15
2017/9/2 1:53,4.1,16,4.1,16,11.3,16
2017/9/2 1:54,4.2,16,4.2,16,8.1,16
2017/9/2 1:55,4.4,16,4.4,16,11.7,15
2017/9/2 1:56,4.6,16,4.6,16,10.1,15
2017/9/2 1:57,4.6,16,4.7,16,11,16
2017/9/2 1:58,4.5,16,4.7,16,11.9,1
2017/9/2 1:59,5,16,5,16,12.3,16
2017/9/2 2:00,5.1,16,5.2,16,7.9,2
2017/9/2 2:01,5,16,5.1,16,6.8,3
2017/9/2 2:02,5.1,1,5.1,16,7.6,2
2017/9/2 2:03,4.7,1,5,16,6.5,15
2017/9/2 2:04,4.8,1,4.8,16,8.5,16
2017/9/2 2:05,4.8,1,5,16,9.5,2
2017/9/2 2:06,4.5,1,4.8,16,8.3,2
2017/9/2 2:07,4.4,1,4.5,16,6.1,3
2017/9/2 2:08,4.7,1,4.7,16,10.5,1
2017/9/2 2:09,4.4,2,4.7,16,7.1,6
2017/9/2 2:10,4.4,2,4.4,16,9.8,2
2017/9/2 2:11,4.7,2,4.7,16,11.1,2
2017/9/2 2:12,4.5,1,4.7,1,7.4,16
2017/9/2 2:13,4.5,2,4.5,1,6.4,4
2017/9/2 2:14,4.2,1,4.4,1,4.4,13
2017/9/2 2:15,4,1,4.2,1,6.7,16
2017/9/2 2:16,3.9,1,4,1,6.3,16
2017/9/2 2:17,4.2,1,4.2,1,8.3,2
2017/9/2 2:18,3.9,2,4.2,2,6.3,2
2017/9/2 2:19,3.8,2,3.9,2,4.9,4
2017/9/2 2:20,3.6,2,3.8,2,8.2,16
2017/9/2 2:21,3.6,2,3.7,2,13.2,15
2017/9/2 2:22,3.6,1,3.6,1,4.5,16
2017/9/2 2:23,3.8,1,3.8,2,8.9,4
2017/9/2 2:24,4,2,4,1,8.3,3
2017/9/2 2:25,3.9,2,4,1,6.2,3
2017/9/2 2:26,3.8,2,3.9,1,5,1
2017/9/2 2:27,3.5,2,3.8,1,7.5,3
2017/9/2 2:28,3.6,2,3.6,2,8.1,4
2017/9/2 2:29,3.7,2,3.7,2,8.4,1
2017/9/2 2:30,4,2,4,2,7.9,16
2017/9/2 2:31,3.9,2,3.9,2,9.5,1
2017/9/2 2:32,4.1,2,4.1,2,10.2,16
2017/9/2 2:33,3.9,2,4.1,2,7.9,3
2017/9/2 2:34,3.8,2,3.9,2,7,2
2017/9/2 2:35,3.8,1,3.8,2,4.9,16
2017/9/2 2:36,3.8,1,3.8,2,6.5,14
2017/9/2 2:37,3.9,1,4,2,9.2,14
2017/9/2 2:38,3.8,16,4,2,6.8,16
2017/9/2 2:39,3.8,16,3.8,2,9.3,16
2017/9/2 2:40,3.7,16,3.8,2,10.3,1
2017/9/2 2:41,3.6,16,3.7,2,7.7,2
2017/9/2 2:42,3.9,16,3.9,2,14.8,1
2017/9/2 2:43,4,16,4,1,9,15
2017/9/2 2:44,4.1,16,4.1,16,8.2,16
2017/9/2 2:45,4.3,16,4.3,16,9.4,1
2017/9/2 2:46,4.6,16,4.6,16,10.8,1
2017/9/2 2:47,4.8,16,4.8,16,10.1,16
2017/9/2 2:48,4.9,16,4.9,16,11.9,16
2017/9/2 2:49,4.9,16,4.9,16,9.5,16
2017/9/2 2:50,5,16,5.1,16,11.7,2
2017/9/2 2:51,5,16,5.1,16,11.3,1
2017/9/2 2:52,5,16,5.2,16,11.4,16
2017/9/2 2:53,5,16,5,16,8.3,14
2017/9/2 2:54,5.2,16,5.2,16,10.1,16
2017/9/2 2:55,5.4,16,5.4,16,12.4,16
2017/9/2 2:56,5.8,16,5.8,16,14.9,16
2017/9/2 2:57,5.9,16,5.9,16,16.1,16
2017/9/2 2:58,6.2,16,6.2,16,12.7,16
2017/9/2 2:59,6.4,16,6.4,16,9.9,15
2017/9/2 3:00,6.8,16,6.8,16,14.7,16
2017/9/2 3:01,7,16,7,16,13.2,1
2017/9/2 3:02,7.1,16,7.1,16,13.1,16
2017/9/2 3:03,7.2,16,7.2,16,12.2,1
2017/9/2 3:04,7.3,16,7.4,16,11.6,1
2017/9/2 3:05,7.2,1,7.3,16,15.7,1
2017/9/2 3:06,6.8,1,7.2,16,9.2,16
2017/9/2 3:07,6.6,1,6.7,16,11.9,1
2017/9/2 3:08,6.7,16,6.7,16,13.5,2
2017/9/2 3:09,6.7,16,6.8,16,13.6,1
2017/9/2 3:10,6.4,1,6.7,16,10.1,1
2017/9/2 3:11,6.1,1,6.4,16,9.2,16
2017/9/2 3:12,5.8,1,6.1,16,8.7,2
2017/9/2 3:13,5.4,16,5.7,16,6.8,16
2017/9/2 3:14,5.3,16,5.4,16,10.2,15
2017/9/2 3:15,5.2,16,5.3,1,10.6,13
2017/9/2 3:16,5.5,16,5.5,1,12.1,16
2017/9/2 3:17,5.5,16,5.7,1,11.8,16
2017/9/2 3:18,5.1,16,5.4,1,9,14
2017/9/2 3:19,5,16,5.1,16,11.9,16
2017/9/2 3:20,5.1,16,5.2,1,10,15
2017/9/2 3:21,5.3,16,5.3,1,12.5,16
2017/9/2 3:22,5.2,16,5.3,1,6.2,15
2017/9/2 3:23,5.3,16,5.3,16,8.7,16
2017/9/2 3:24,5.4,16,5.4,16,9,2
2017/9/2 3:25,5.4,16,5.5,16,11.1,16
2017/9/2 3:26,4.9,16,5.4,16,6,15
2017/9/2 3:27,4.6,16,4.9,16,4.9,15
2017/9/2 3:28,4.4,16,4.6,16,7.8,16
2017/9/2 3:29,4.7,16,4.7,16,13.9,16
2017/9/2 3:30,4.9,16,4.9,16,12.4,15
2017/9/2 3:31,5,16,5,16,13.8,16
2017/9/2 3:32,5.3,16,5.3,16,10.8,16
2017/9/2 3:33,5.5,16,5.5,16,11.8,1
2017/9/2 3:34,5.6,16,5.7,16,10.8,15
2017/9/2 3:35,5.6,16,5.7,16,9.5,16
2017/9/2 3:36,5.7,16,5.7,16,7.8,16
2017/9/2 3:37,5.9,16,5.9,16,7.6,15
2017/9/2 3:38,6.4,16,6.4,16,12.2,16
2017/9/2 3:39,6.6,16,6.6,16,14.8,16
2017/9/2 3:40,6.6,16,6.6,16,11.7,16
2017/9/2 3:41,6.6,16,6.7,16,12.3,15
2017/9/2 3:42,6.6,16,6.7,16,13.1,15
2017/9/2 3:43,6.6,16,6.6,16,11.3,15
2017/9/2 3:44,6.8,16,6.8,16,13.8,15
2017/9/2 3:45,7.3,16,7.3,16,19.9,16
2017/9/2 3:46,7.7,16,7.7,16,16.2,16
2017/9/2 3:47,7.9,16,7.9,16,11.5,16
2017/9/2 3:48,8.1,16,8.1,16,14.9,15
2017/9/2 3:49,8,16,8,16,14.5,15
2017/9/2 3:50,8.3,16,8.3,16,15.7,16
2017/9/2 3:51,8.5,16,8.5,16,14.9,16
2017/9/2 3:52,8.6,16,8.6,16,13.1,16
2017/9/2 3:53,8.4,16,8.6,16,8.5,16
2017/9/2 3:54,8.3,16,8.4,16,15.9,15
2017/9/2 3:55,8,16,8.3,16,12.6,1
2017/9/2 3:56,8.1,16,8.1,16,13.4,16
2017/9/2 3:57,8.6,16,8.7,16,17.4,16
2017/9/2 3:58,8.8,16,8.8,16,17.6,16
2017/9/2 3:59,8.7,16,8.8,16,12.4,16
2017/9/2 4:00,8.7,16,8.8,16,15.6,16
2017/9/2 4:01,8.6,16,8.7,16,15.7,16
2017/9/2 4:02,8.8,16,8.8,16,15.2,16
2017/9/2 4:03,9,16,9,16,11.3,1
2017/9/2 4:04,8.8,16,9.1,16,7.7,1
2017/9/2 4:05,8.6,16,8.8,16,10.3,16
2017/9/2 4:06,8.7,16,8.7,16,19,15
2017/9/2 4:07,8.6,16,8.7,16,17.8,16
2017/9/2 4:08,8.7,16,8.7,16,15.2,16
2017/9/2 4:09,8.5,16,8.7,16,13.8,1
2017/9/2 4:10,8,16,8.5,16,9.9,15
2017/9/2 4:11,7.7,16,7.9,16,12.5,15
2017/9/2 4:12,7.5,16,7.8,16,11.6,16
2017/9/2 4:13,7.4,16,7.4,16,15.7,16
2017/9/2 4:14,7.6,16,7.6,16,14.2,15
2017/9/2 4:15,7.9,16,8,16,14.7,16
2017/9/2 4:16,7.5,16,7.9,16,9.5,16
2017/9/2 4:17,7,16,7.5,16,10.1,15
2017/9/2 4:18,6.5,16,6.9,16,15,1
2017/9/2 4:19,6.4,16,6.5,16,10.7,16
2017/9/2 4:20,6.2,16,6.4,16,9.5,16
2017/9/2 4:21,5.9,16,6.2,16,6.9,1
2017/9/2 4:22,5.6,16,5.8,16,5.8,2
2017/9/2 4:23,5.2,16,5.7,16,7.1,2
2017/9/2 4:24,4.9,1,5.2,16,7.5,1
2017/9/2 4:25,4.3,1,4.8,16,9.4,16
2017/9/2 4:26,4.5,1,4.5,16,14.3,16
2017/9/2 4:27,4.3,1,4.4,16,9.7,16
2017/9/2 4:28,4.1,1,4.2,16,8.6,2
2017/9/2 4:29,4,1,4.1,16,9.1,16
2017/9/2 4:30,4.2,1,4.2,16,10.8,1
2017/9/2 4:31,4.8,1,4.8,16,14.8,16
2017/9/2 4:32,5.1,1,5.1,16,11.9,16
2017/9/2 4:33,5.4,1,5.4,1,12.2,16
2017/9/2 4:34,5.9,16,5.9,16,13.3,16
2017/9/2 4:35,6.1,16,6.1,16,10.7,15
2017/9/2 4:36,6.2,16,6.2,16,11.9,16
2017/9/2 4:37,6.5,16,6.5,16,15.2,1
2017/9/2 4:38,6.4,16,6.5,16,8.5,16
2017/9/2 4:39,6.4,16,6.4,16,8.2,16
2017/9/2 4:40,6.2,16,6.4,16,10.5,16
2017/9/2 4:41,6.2,16,6.3,16,12.7,16
2017/9/2 4:42,6.3,16,6.3,16,13.3,16
2017/9/2 4:43,6.5,16,6.6,16,12.8,16
2017/9/2 4:44,6.6,16,6.6,16,15.2,16
2017/9/2 4:45,6.8,16,6.8,16,15.1,16
2017/9/2 4:46,6.7,16,6.8,16,10.6,16
2017/9/2 4:47,6.7,16,6.7,16,12.1,1
2017/9/2 4:48,7,16,7,16,12.4,15
2017/9/2 4:49,7.1,16,7.1,16,11.9,16
2017/9/2 4:50,7.2,16,7.2,16,12.2,15
2017/9/2 4:51,7.1,16,7.2,16,12.1,15
2017/9/2 4:52,6.6,16,7,16,10,1
2017/9/2 4:53,6.1,16,6.5,16,8.6,1
2017/9/2 4:54,5.7,16,6.2,16,8.3,16
2017/9/2 4:55,5.2,16,5.6,16,6.1,1
2017/9/2 4:56,4.8,1,5.1,16,9.7,15
2017/9/2 4:57,4.7,1,4.8,16,9.7,2
2017/9/2 4:58,5,1,5,16,15.9,16
2017/9/2 4:59,5.1,1,5.1,16,10.9,16
2017/9/2 5:00,4.9,1,5.2,16,11,1
2017/9/2 5:01,4.9,1,5,16,10.7,16
2017/9/2 5:02,5,1,5,16,9.2,2
2017/9/2 5:03,5.2,16,5.2,16,10.9,2
2017/9/2 5:04,5.2,1,5.2,16,9.5,1
2017/9/2 5:05,5.6,16,5.6,16,11,1
2017/9/2 5:06,6,16,6,16,16.8,16
2017/9/2 5:07,6.3,16,6.3,16,14,16
2017/9/2 5:08,6,16,6.3,16,13.3,1
2017/9/2 5:09,6.2,16,6.2,16,14.3,16
2017/9/2 5:10,6.5,16,6.5,16,13.8,16
2017/9/2 5:11,6.9,16,6.9,16,13.6,16
2017/9/2 5:12,7.5,16,7.5,16,15,1
2017/9/2 5:13,7.9,16,7.9,16,17.4,16
2017/9/2 5:14,8.6,16,8.6,16,18.7,16
2017/9/2 5:15,9.2,16,9.2,16,18.5,16
2017/9/2 5:16,9.3,16,9.4,16,14.7,1
2017/9/2 5:17,9.5,16,9.5,16,14.5,16
2017/9/2 5:18,9.6,16,9.6,16,16.7,1
2017/9/2 5:19,9.8,16,9.9,16,18.8,16
2017/9/2 5:20,9.9,16,10,16,15.2,16
2017/9/2 5:21,9.9,16,9.9,16,16.7,1
2017/9/2 5:22,10.1,16,10.1,16,16,16
2017/9/2 5:23,10,16,10.2,16,15.4,1
2017/9/2 5:24,9.9,16,10.1,16,16.3,15
2017/9/2 5:25,9.7,16,9.9,16,16,16
2017/9/2 5:26,9.6,16,9.6,16,13.3,1
2017/9/2 5:27,9.3,16,9.6,16,10.6,16
2017/9/2 5:28,9.2,16,9.4,16,16.9,15
2017/9/2 5:29,8.9,16,9.2,16,16,15
2017/9/2 5:30,8.7,16,8.9,16,9.4,1
2017/9/2 5:31,8.5,16,8.7,16,13.2,16
2017/9/2 5:32,8.1,16,8.4,16,12.4,16
2017/9/2 5:33,8.1,16,8.1,16,13.2,16
2017/9/2 5:34,7.8,16,8,16,11.5,16
2017/9/2 5:35,7.3,16,7.7,16,9,16
2017/9/2 5:36,7.3,16,7.3,16,11.6,15
2017/9/2 5:37,7.6,16,7.6,16,17,16
2017/9/2 5:38,7.6,16,7.6,16,13.4,16
2017/9/2 5:39,7.7,16,7.7,16,14.5,16
2017/9/2 5:40,8,16,8.1,16,16.1,1
2017/9/2 5:41,8,16,8.1,16,12.6,16
2017/9/2 5:42,7.8,16,8,16,14,15
2017/9/2 5:43,7.4,16,7.8,16,10,15
2017/9/2 5:44,7.6,16,7.6,16,13,16
2017/9/2 5:45,7.9,16,8,16,13.5,16
2017/9/2 5:46,7.9,16,8,16,12.4,1
2017/9/2 5:47,7.9,16,8,16,14.4,16
2017/9/2 5:48,8,16,8,16,14.3,15
2017/9/2 5:49,8,16,8.1,16,15.6,16
2017/9/2 5:50,7.6,16,7.9,16,10.5,1
2017/9/2 5:51,7.7,16,7.8,16,11.6,16
2017/9/2 5:52,7.6,16,7.6,16,10,16
2017/9/2 5:53,7.9,16,7.9,16,13.5,16
2017/9/2 5:54,7.7,16,7.9,16,11.3,1
2017/9/2 5:55,7.6,16,7.6,16,10.7,15
2017/9/2 5:56,7.6,16,7.6,16,13.3,1
2017/9/2 5:57,7.4,16,7.5,16,13.8,15
2017/9/2 5:58,7.3,16,7.5,16,14.8,16
2017/9/2 5:59,7.3,16,7.3,16,12.4,16
2017/9/2 6:00,7.4,16,7.4,16,11.6,16
2017/9/2 6:01,7.4,16,7.5,16,10.2,16
2017/9/2 6:02,7.4,16,7.5,16,9.2,16
2017/9/2 6:03,7.3,16,7.4,16,10.9,15
2017/9/2 6:04,7.5,16,7.5,16,14.4,16
2017/9/2 6:05,7.3,16,7.4,16,9.7,1
2017/9/2 6:06,7.2,16,7.3,16,10.3,15
2017/9/2 6:07,7,16,7.1,16,10.1,16
2017/9/2 6:08,7,16,7,16,12.7,16
2017/9/2 6:09,7,16,7.1,16,15.6,16
2017/9/2 6:10,7,16,7.1,16,11.6,16
2017/9/2 6:11,6.9,16,7,16,10,16
2017/9/2 6:12,6.9,16,7,16,11,1
2017/9/2 6:13,6.8,16,6.9,16,10,16
2017/9/2 6:14,6.4,16,6.8,16,9.9,3
2017/9/2 6:15,6.6,16,6.6,16,11.8,16
2017/9/2 6:16,6.6,16,6.6,16,11.5,15
2017/9/2 6:17,6.5,16,6.6,16,11.1,1
2017/9/2 6:18,6.7,16,6.7,16,14.8,16
2017/9/2 6:19,6.7,16,6.7,16,14.2,16
2017/9/2 6:20,6.7,16,6.8,16,12.4,15
2017/9/2 6:21,6.6,16,6.7,16,11.7,16
2017/9/2 6:22,6.7,16,6.7,16,9.8,16
2017/9/2 6:23,6.8,16,6.8,16,9.5,15
2017/9/2 6:24,6.9,16,6.9,16,10,16
2017/9/2 6:25,6.7,16,6.9,16,9.2,16
2017/9/2 6:26,6.6,16,6.7,16,9.3,16
2017/9/2 6:27,6.6,16,6.7,16,9.8,16
2017/9/2 6:28,6,16,6.6,16,6.7,16
2017/9/2 6:29,5.6,16,6,16,7,16
2017/9/2 6:30,5.3,16,5.5,16,7.2,1
2017/9/2 6:31,5.1,16,5.3,16,6.5,16
2017/9/2 6:32,4.9,16,5.1,16,6.7,16
2017/9/2 6:33,4.5,16,4.9,16,5.2,15
2017/9/2 6:34,4.3,16,4.5,16,5.5,16
2017/9/2 6:35,4.2,16,4.3,16,6.1,16
2017/9/2 6:36,4,16,4.2,16,5,16
2017/9/2 6:37,3.7,16,3.9,16,4.9,16
2017/9/2 6:38,3.6,16,3.7,16,3.9,16
2017/9/2 6:39,3.5,16,3.6,16,5.5,15
2017/9/2 6:40,3.5,16,3.5,16,5.4,16
2017/9/2 6:41,3.5,16,3.5,16,5.4,16
2017/9/2 6:42,3.3,16,3.5,16,3.9,15
2017/9/2 6:43,3.1,15,3.2,16,3,15
2017/9/2 6:44,2.9,15,3.1,16,3.2,16
2017/9/2 6:45,2.6,15,2.9,16,2.6,16
2017/9/2 6:46,2.5,15,2.6,16,1.6,15
2017/9/2 6:47,2.3,15,2.5,16,2.2,14
2017/9/2 6:48,2.2,15,2.3,16,2.5,16
2017/9/2 6:49,1.8,15,2.1,16,1,1
2017/9/2 6:50,1.5,15,1.8,16,1,9
2017/9/2 6:51,1.2,14,1.4,16,3.1,9
2017/9/2 6:52,1.2,14,1.2,15,2.1,12
2017/9/2 6:53,1.1,14,1.2,15,1.9,16
2017/9/2 6:54,1.1,14,1.1,15,2.6,14
2017/9/2 6:55,1.3,13,1.3,15,4.4,13
2017/9/2 6:56,1.4,13,1.4,15,3.3,13
2017/9/2 6:57,1.3,13,1.4,15,1.4,15
2017/9/2 6:58,1.2,13,1.3,15,1.4,15
2017/9/2 6:59,1.2,13,1.2,15,0.8,14
2017/9/2 7:00,1.2,14,1.2,15,0.5,13
2017/9/2 7:01,1.1,14,1.2,13,0.9,13
2017/9/2 7:02,1,14,1.1,13,0.9,1
2017/9/2 7:03,1,14,1,13,1.6,14
2017/9/2 7:04,1.1,14,1.1,13,3.2,11
2017/9/2 7:05,0.9,14,1.1,13,2,13
2017/9/2 7:06,0.7,14,0.9,13,1.6,16
2017/9/2 7:07,0.9,15,0.9,13,4.3,16
2017/9/2 7:08,0.9,15,0.9,13,1.8,16
2017/9/2 7:09,1,15,1,13,2.7,7
2017/9/2 7:10,1,15,1,14,0.3,15
2017/9/2 7:11,1,15,1,14,1.8,13
2017/9/2 7:12,1.1,14,1.1,14,2.1,12
2017/9/2 7:13,1.2,13,1.2,14,3,13
2017/9/2 7:14,1.2,13,1.2,14,2.4,12
2017/9/2 7:15,1.2,13,1.2,14,2,11
2017/9/2 7:16,1.4,12,1.4,12,2.7,8
2017/9/2 7:17,1.3,10,1.4,12,2.7,7
2017/9/2 7:18,1.3,11,1.3,12,1.6,9
2017/9/2 7:19,1.4,11,1.4,12,1.9,13
2017/9/2 7:20,1.6,11,1.6,11,3.5,11
2017/9/2 7:21,1.7,11,1.7,11,2.7,11
2017/9/2 7:22,1.8,10,1.8,10,3,10
2017/9/2 7:23,1.7,10,1.8,10,3,10
2017/9/2 7:24,1.6,10,1.7,10,2.4,9
2017/9/2 7:25,1.6,10,1.6,10,2.7,10
2017/9/2 7:26,1.6,10,1.6,10,2.2,11
2017/9/2 7:27,1.6,10,1.6,10,2.6,9
2017/9/2 7:28,1.7,10,1.7,10,3.3,10
2017/9/2 7:29,1.9,10,1.9,10,4.1,10
2017/9/2 7:30,2,10,2,10,4.4,11
2017/9/2 7:31,2.1,10,2.1,10,4.5,10
2017/9/2 7:32,2.1,10,2.2,10,3.9,9
2017/9/2 7:33,2.1,10,2.1,10,2.7,8
2017/9/2 7:34,2.2,10,2.2,10,3.7,10
2017/9/2 7:35,2.3,10,2.3,10,4.1,10
2017/9/2 7:36,2.4,10,2.4,10,3.3,10
2017/9/2 7:37,2.4,10,2.4,10,3.7,8
2017/9/2 7:38,2.4,10,2.4,10,5.8,9
2017/9/2 7:39,2.4,10,2.5,10,4.8,9
2017/9/2 7:40,2.2,10,2.4,10,3,8
2017/9/2 7:41,2.2,10,2.2,10,3.1,11
2017/9/2 7:42,2.1,10,2.1,10,2.9,10
2017/9/2 7:43,2.2,10,2.2,10,3,12
2017/9/2 7:44,2.2,10,2.2,10,2.2,12
2017/9/2 7:45,2,10,2.2,10,2.2,8
2017/9/2 7:46,1.9,10,2,10,2.2,10
2017/9/2 7:47,1.8,10,1.9,10,1.5,12
2017/9/2 7:48,1.7,11,1.8,10,2,13
2017/9/2 7:49,1.6,11,1.7,10,2.6,13
2017/9/2 7:50,1.7,11,1.7,10,2.9,13
2017/9/2 7:51,1.6,12,1.7,10,2.1,13
2017/9/2 7:52,1.5,12,1.6,10,2.1,13
2017/9/2 7:53,1.5,11,1.5,10,2.1,10
2017/9/2 7:54,1.4,12,1.4,10,2.9,10
2017/9/2 7:55,1.4,12,1.4,10,2.4,10
2017/9/2 7:56,1.5,12,1.5,10,4.1,16
2017/9/2 7:57,1.8,13,1.8,10,4.9,16
2017/9/2 7:58,1.9,13,1.9,13,4.1,15
2017/9/2 7:59,2,13,2,13,3.6,12
2017/9/2 8:00,2.1,13,2.1,13,3.8,12
2017/9/2 8:01,2.3,13,2.3,13,4.7,12
2017/9/2 8:02,2.3,13,2.4,13,4.3,11
2017/9/2 8:03,2.5,13,2.5,13,5.5,10
2017/9/2 8:04,2.6,12,2.7,12,4.5,9
2017/9/2 8:05,2.8,12,2.8,12,5.6,9
2017/9/2 8:06,2.9,12,2.9,12,4.8,9
2017/9/2 8:07,2.7,11,2.8,12,2.5,9
2017/9/2 8:08,2.5,11,2.7,12,2.2,10
2017/9/2 8:09,2.5,11,2.6,12,3.7,10
2017/9/2 8:10,2.4,10,2.5,12,3.1,9
2017/9/2 8:11,2.1,10,2.4,12,2.5,12
2017/9/2 8:12,2.2,10,2.2,12,4.4,10
2017/9/2 8:13,2.3,10,2.3,12,4.3,12
2017/9/2 8:14,2.2,11,2.3,12,4.4,13
2017/9/2 8:15,2.1,11,2.2,12,3,12
2017/9/2 8:16,2.1,11,2.1,12,4.1,10
2017/9/2 8:17,2.2,11,2.2,11,4.1,10
2017/9/2 8:18,2.3,10,2.3,11,2.6,9
2017/9/2 8:19,2.1,10,2.3,11,2.5,8
2017/9/2 8:20,2.1,10,2.1,10,1.3,11
2017/9/2 8:21,2.1,10,2.2,10,2.5,10
2017/9/2 8:22,2,10,2.1,10,2,11
2017/9/2 8:23,1.7,10,2,10,1.4,13
2017/9/2 8:24,1.5,10,1.7,10,1,13
2017/9/2 8:25,1.4,11,1.5,10,1.4,13
2017/9/2 8:26,1.3,11,1.4,10,1,13
2017/9/2 8:27,1,11,1.2,10,1.5,10
2017/9/2 8:28,1,11,1,10,2.5,9
2017/9/2 8:29,1,11,1,10,2.9,10
2017/9/2 8:30,1,12,1,10,2,14
2017/9/2 8:31,1,12,1,10,1.9,13
2017/9/2 8:32,1,12,1,10,1.8,14
2017/9/2 8:33,1.1,12,1.1,10,1.8,13
2017/9/2 8:34,1.2,12,1.2,10,2.5,10
2017/9/2 8:35,1.2,11,1.2,11,2.1,9
2017/9/2 8:36,1.2,11,1.2,11,1.1,8
2017/9/2 8:37,1.3,12,1.3,11,2.7,12
2017/9/2 8:38,1.4,12,1.4,12,2,13
2017/9/2 8:39,1.4,12,1.4,12,2.4,12
2017/9/2 8:40,1.5,12,1.5,12,2.7,14
2017/9/2 8:41,1.6,12,1.6,12,3.3,11
2017/9/2 8:42,1.7,12,1.7,12,3.1,11
2017/9/2 8:43,1.8,12,1.8,12,3.3,11
2017/9/2 8:44,1.8,12,1.8,12,2.7,9
2017/9/2 8:45,2,12,2,12,5,8
2017/9/2 8:46,2.2,11,2.2,11,6.7,9
2017/9/2 8:47,2.4,11,2.4,11,6,9
2017/9/2 8:48,2.4,10,2.5,11,4.9,7
2017/9/2 8:49,2.3,11,2.4,11,2.4,10
2017/9/2 8:50,2.3,11,2.3,11,3.5,16
2017/9/2 8:51,2.3,11,2.4,11,3.2,14
2017/9/2 8:52,2.2,11,2.3,11,3.3,1
2017/9/2 8:53,2,11,2.1,11,1.5,14
2017/9/2 8:54,2,13,2,11,4.7,16
2017/9/2 8:55,1.9,14,2,11,3.8,16
2017/9/2 8:56,1.9,14,1.9,11,3.7,15
2017/9/2 8:57,1.8,15,1.8,11,4.9,16
2017/9/2 8:58,1.9,15,1.9,10,4.9,14
2017/9/2 8:59,2.2,15,2.2,11,6,16
2017/9/2 9:00,2.4,15,2.4,11,6,2
2017/9/2 9:01,2.6,16,2.6,16,6.9,3
2017/9/2 9:02,2.8,16,2.8,16,7.4,3
2017/9/2 9:03,2.8,16,2.8,16,2.4,2
2017/9/2 9:04,2.8,16,2.9,16,1.9,1
2017/9/2 9:05,2.6,16,2.8,16,1.6,11
2017/9/2 9:06,2.5,16,2.6,16,2.2,13
2017/9/2 9:07,2.5,16,2.5,16,4.2,11
2017/9/2 9:08,2.4,15,2.5,16,3.6,11
2017/9/2 9:09,2,15,2.4,16,1.5,13
2017/9/2 9:10,1.7,14,2,16,0.6,5
2017/9/2 9:11,1.4,13,1.7,16,2.2,9
2017/9/2 9:12,1.2,12,1.3,16,2.2,9
2017/9/2 9:13,1.2,12,1.2,16,1.1,9
2017/9/2 9:14,1.1,11,1.2,16,1,3
2017/9/2 9:15,1.2,12,1.2,16,3.7,16
2017/9/2 9:16,1.2,14,1.3,16,2.5,16
2017/9/2 9:17,1,1,1.2,16,1.6,4
2017/9/2 9:18,0.9,3,1,15,1.5,5
2017/9/2 9:19,0.9,4,0.9,15,1,5
2017/9/2 9:20,0.9,4,0.9,14,1.3,14
2017/9/2 9:21,0.9,4,0.9,13,1.6,10
2017/9/2 9:22,0.8,4,0.9,13,1.6,10
2017/9/2 9:23,0.9,5,0.9,13,2,8
2017/9/2 9:24,1,6,1,13,2.4,7
2017/9/2 9:25,1.1,7,1.1,13,3.1,8
2017/9/2 9:26,1,7,1,14,2.1,8
2017/9/2 9:27,1,8,1,6,2.7,6
2017/9/2 9:28,1.1,8,1.1,6,2.6,6
2017/9/2 9:29,1.2,8,1.2,8,2.4,4
2017/9/2 9:30,1.2,7,1.2,8,1.4,6
2017/9/2 9:31,1.2,7,1.2,8,2.2,10
2017/9/2 9:32,1.4,8,1.4,8,4.7,9
2017/9/2 9:33,1.4,8,1.5,8,4.8,9
2017/9/2 9:34,1.5,8,1.5,8,5,9
2017/9/2 9:35,1.5,8,1.5,8,5.4,9
2017/9/2 9:36,1.6,8,1.6,8,5.2,9
2017/9/2 9:37,1.7,9,1.7,8,3.5,10
2017/9/2 9:38,1.8,9,1.8,9,4.3,9
2017/9/2 9:39,2,9,2,9,6.1,10
2017/9/2 9:40,2.3,10,2.3,10,7.6,9
2017/9/2 9:41,2.5,10,2.5,10,5.6,10
2017/9/2 9:42,2.4,10,2.5,10,4.2,11
2017/9/2 9:43,2.4,10,2.4,10,3.3,11
2017/9/2 9:44,2.6,10,2.6,10,5.7,14
2017/9/2 9:45,2.7,11,2.7,10,4.9,16
2017/9/2 9:46,2.6,12,2.7,10,2.7,15
2017/9/2 9:47,2.5,12,2.6,10,2.6,16
2017/9/2 9:48,2.6,13,2.6,10,5.5,14
2017/9/2 9:49,2.6,14,2.7,10,5.4,15
2017/9/2 9:50,2.3,14,2.5,10,2.2,4
2017/9/2 9:51,2.2,15,2.3,10,3.2,2
2017/9/2 9:52,2.1,15,2.2,10,2.7,16
2017/9/2 9:53,2.1,16,2.2,10,3.2,1
2017/9/2 9:54,1.8,16,2.1,10,1.3,2
2017/9/2 9:55,1.7,16,1.8,11,4.4,12
2017/9/2 9:56,1.7,16,1.7,13,2.7,10
2017/9/2 9:57,1.7,16,1.8,13,3.8,12
2017/9/2 9:58,1.5,16,1.7,13,3,15
2017/9/2 9:59,1.5,16,1.5,14,4.2,1
2017/9/2 10:00,1.5,15,1.6,14,2.1,15
2017/9/2 10:01,1.5,15,1.6,15,3,15
2017/9/2 10:02,1.8,14,1.8,16,7.9,16
2017/9/2 10:03,1.8,14,1.8,16,7.2,16
2017/9/2 10:04,2,14,2,14,3.9,12
2017/9/2 10:05,2.3,14,2.3,14,7.1,16
2017/9/2 10:06,2.5,15,2.5,15,4.4,16
2017/9/2 10:07,2.5,15,2.5,15,4.1,15
2017/9/2 10:08,2.5,15,2.6,15,3.2,14
2017/9/2 10:09,2.5,15,2.5,15,3.8,7
2017/9/2 10:10,2.5,16,2.5,15,2.4,4
2017/9/2 10:11,2.5,16,2.5,15,2.4,3
2017/9/2 10:12,2.4,1,2.5,15,3.2,3
2017/9/2 10:13,2.5,1,2.5,15,7.6,3
2017/9/2 10:14,2.6,2,2.6,15,6.5,1
2017/9/2 10:15,2.3,2,2.6,15,4.8,3
2017/9/2 10:16,2.3,2,2.3,15,5.6,2
2017/9/2 10:17,2.4,2,2.5,15,6,1
2017/9/2 10:18,2.4,2,2.5,1,2.6,2
2017/9/2 10:19,2.3,2,2.4,1,2.6,15
2017/9/2 10:20,2.3,1,2.3,1,1.4,14
2017/9/2 10:21,2.3,1,2.3,1,2.5,12
2017/9/2 10:22,2.3,16,2.4,1,6.3,12
2017/9/2 10:23,2.4,16,2.4,1,13.1,1
2017/9/2 10:24,2.3,15,2.4,2,7,2
2017/9/2 10:25,2.3,14,2.4,2,3.8,12
2017/9/2 10:26,2.1,14,2.2,2,3.6,5
2017/9/2 10:27,2,13,2.1,2,5.5,6
2017/9/2 10:28,2.1,13,2.1,2,2.1,2
2017/9/2 10:29,2.2,12,2.2,16,4.4,4
2017/9/2 10:30,2.4,11,2.4,16,5.4,5
2017/9/2 10:31,2.4,7,2.4,16,3.3,6
2017/9/2 10:32,2.3,6,2.4,16,4.1,5
2017/9/2 10:33,2.1,6,2.4,16,3.2,3
2017/9/2 10:34,2.1,5,2.1,15,3.1,3
2017/9/2 10:35,2.2,5,2.2,12,4.2,4
2017/9/2 10:36,2.3,4,2.3,12,4.3,4
2017/9/2 10:37,2.3,4,2.3,12,5.6,2
2017/9/2 10:38,2.5,4,2.5,4,4.8,3
2017/9/2 10:39,2.5,4,2.6,4,5,3
2017/9/2 10:40,2.5,4,2.6,4,3.9,4
2017/9/2 10:41,2.6,3,2.6,4,3.3,4
2017/9/2 10:42,2.6,3,2.6,4,3.3,3
2017/9/2 10:43,2.7,3,2.7,3,6.7,3
2017/9/2 10:44,2.6,3,2.7,3,2.2,3
2017/9/2 10:45,2.3,3,2.6,3,1,1
2017/9/2 10:46,2,3,2.3,3,0.3,4
2017/9/2 10:47,1.9,3,2,3,1.6,8
2017/9/2 10:48,1.7,3,1.8,3,2.4,10
2017/9/2 10:49,1.4,3,1.7,3,2.2,9
2017/9/2 10:50,1.3,3,1.4,3,3.5,10
2017/9/2 10:51,1.2,4,1.3,3,3.5,9
2017/9/2 10:52,1.1,6,1.2,3,2.4,6
2017/9/2 10:53,1,7,1.1,3,3,6
2017/9/2 10:54,1,7,1,3,2.1,3
2017/9/2 10:55,1.1,6,1.1,3,2,2
2017/9/2 10:56,1.3,6,1.3,3,3.2,16
2017/9/2 10:57,1.4,4,1.4,3,2.9,16
2017/9/2 10:58,1.3,3,1.3,3,1.5,15
2017/9/2 10:59,1.3,2,1.3,3,1.6,14
2017/9/2 11:00,1.4,2,1.4,5,3.2,3
2017/9/2 11:01,1.5,2,1.5,2,3.3,4
2017/9/2 11:02,1.6,2,1.6,2,3.9,4
2017/9/2 11:03,1.5,2,1.5,2,3,6
2017/9/2 11:04,1.5,2,1.5,2,3,6
2017/9/2 11:05,1.4,2,1.5,2,2,11
2017/9/2 11:06,1.5,2,1.5,2,3.8,12
2017/9/2 11:07,1.5,2,1.5,2,3.2,13
2017/9/2 11:08,1.6,2,1.6,2,1.8,11
2017/9/2 11:09,1.6,3,1.6,2,2.4,16
2017/9/2 11:10,1.6,1,1.6,2,3,16
2017/9/2 11:11,1.5,16,1.6,2,3.2,2
2017/9/2 11:12,1.5,15,1.5,1,2.2,15
2017/9/2 11:13,1.4,15,1.5,1,1.6,14
2017/9/2 11:14,1.5,15,1.5,1,4.1,2
2017/9/2 11:15,1.6,15,1.6,1,3,1
2017/9/2 11:16,1.5,16,1.6,1,3.5,4
2017/9/2 11:17,1.5,1,1.5,1,2.7,4
2017/9/2 11:18,1.6,1,1.6,2,3.5,3
2017/9/2 11:19,1.6,1,1.7,1,3.2,14
2017/9/2 11:20,1.8,1,1.8,1,7.4,15
2017/9/2 11:21,1.9,16,1.9,1,5.1,14